TITAN 4B R/B

Last updated on Sat Aug 15 2026 00:02:08 GMT+0000 (Coordinated Universal Time)

1 26474U 00047B 26226.60219579 .00001348 00000+0 88300-4 0 9999 2 26474 67.9887 316.1103 0044587 228.1913 131.5426 15.10475856416756
UTC large
Height (km)
Speed (km/s)
/
Latitude / Longitude
Inclination (degrees)
Orbital Period (minutes)
Azimuth
Elevation
Range (km)
Doppler Factor

Next 0 passes for location: London (51.5072 / 0.1276)

No passes found over London.
TITAN 4B R/B